Wind_Speed
11 11 11 11 11 11 10 10 10 10 10 10 10 9 8 8 7 6 6 5 5 5 4 3 3 4 4 4 5 5 5 6 7 8 8 8 9 10 10 11 11 11 11
10 10 9 10 10 11 11 11 10 10 10 10 10 9 9 8 7 7 5 5 5 4 4 3 3 4 5 5 5 6 7 7 8 8 9 9 10 10 11 12 12 13 13
8 8 8 8 8 9 9 10 9 10 10 9 9 9 10 8 7 6 5 5 5 5 5 4 4 5 6 6 6 7 8 8 8 9 9 9 10 10 12 12 13 13 14
7 7 7 7 7 7 7 8 8 8 9 9 9 9 9 9 8 7 7 6 5 5 6 6 6 6 7 7 7 8 8 9 9 10 10 11 11 12 12 13 13 14 14
5 5 5 5 5 5 6 6 7 7 7 8 8 9 9 9 8 8 7 7 6 6 7 7 7 7 7 8 8 8 9 9 10 11 11 12 12 13 13 14 14 14 15
5 5 4 4 4 4 4 5 5 6 6 7 8 8 9 9 9 8 8 8 7 7 8 8 8 8 8 8 9 9 9 10 11 11 12 13 14 14 14 15 15 15 15
5 5 5 5 5 4 4 4 5 5 6 7 8 9 9 9 9 9 9 8 8 8 8 9 9 9 10 10 9 10 10 11 12 13 14 15 15 15 15 16 16 16 16
7 6 6 5 5 5 4 4 4 5 5 7 8 8 9 9 10 10 9 9 9 9 10 10 10 10 10 10 11 11 12 13 14 14 15 16 16 16 16 16 16 16 17
9 8 8 7 6 6 5 5 4 5 6 7 8 8 9 9 10 10 10 10 10 10 11 11 11 11 11 11 11 12 13 14 15 16 16 17 17 17 17 17 17 17 17
11 10 9 9 8 8 7 6 6 7 7 8 8 9 9 9 10 11 11 11 12 12 12 12 12 12 13 13 13 13 13 15 16 16 17 17 18 18 18 18 18 17 18
12 12 12 11 10 9 9 8 9 9 9 9 9 10 10 10 11 12 13 14 14 14 14 14 14 14 14 15 15 15 15 15 16 17 18 18 18 18 18 18 18 18 18
14 15 13 13 11 10 10 10 10 10 11 11 11 12 12 12 13 14 15 15 16 16 16 15 15 15 15 16 16 16 16 17 17 18 19 19 19 19 19 18 18 18 18
14 15 16 14 13 13 12 13 12 12 12 13 14 14 14 15 15 16 16 17 17 17 17 17 17 17 17 17 17 18 18 18 18 19 19 20 20 20 20 20 20 19 20
16 17 17 17 15 14 14 14 14 15 15 15 16 16 17 18 18 18 18 19 19 19 18 18 19 19 19 19 19 19 19 20 20 20 20 20 21 20 21 21 21 21 21
19 19 19 18 17 16 16 16 16 17 18 18 18 18 19 20 21 21 22 22 22 21 20 20 21 21 20 20 21 20 21 21 21 21 21 22 21 21 21 22 22 22 21
22 21 20 20 19 19 19 19 19 20 20 20 21 21 21 22 23 24 25 24 24 23 22 23 22 22 23 23 22 21 22 22 22 22 22 22 22 22 22 21 22 22 21
24 24 22 22 23 22 22 21 21 22 22 23 23 24 24 24 25 26 26 26 26 25 25 24 24 25 25 26 24 23 24 24 24 24 23 23 23 23 22 22 22 22 22
25 25 24 24 24 24 24 24 24 25 25 25 25 25 27 27 27 28 28 28 28 28 27 26 26 26 28 27 26 26 25 25 25 25 25 25 25 25 24 23 23 23 23
27 27 27 27 27 26 27 27 27 27 27 27 27 28 28 28 28 28 28 29 28 28 29 29 29 29 29 28 28 27 27 27 27 27 27 27 26 26 26 25 25 25 25
30 30 29 29 30 29 29 29 29 29 28 28 29 29 29 30 29 29 30 30 30 30 31 31 31 31 31 31 31 29 29 29 29 29 29 28 27 27 27 27 27 26 26
31 32 31 32 32 31 30 30 31 31 31 30 30 30 31 32 32 32 32 32 32 33 33 33 33 33 33 33 32 31 31 31 31 30 30 30 29 29 29 29 29 28 28
33 33 33 33 33 32 31 31 33 33 33 33 33 33 34 34 35 35 35 35 35 35 34 34 34 34 34 35 34 33 32 33 32 32 32 31 31 30 30 30 30 30 30
35 34 34 34 35 34 34 34 34 35 35 35 35 36 35 36 36 37 37 36 36 36 35 35 35 35 35 35 34 34 34 34 34 33 33 33 32 32 32 32 32 32 32
35 35 35 36 36 36 36 37 37 37 37 37 37 38 38 38 38 38 38 38 37 37 37 36 36 36 36 36 35 36 35 35 34 34 34 34 34 33 33 33 33 33 33
37 37 37 37 37 38 38 38 38 39 39 39 38 38 39 39 39 39 39 37 37 36 36 36 37 37 36 36 37 36 36 35 34 34 34 34 34 34 34 33 33 34 34
38 38 37 38 38 38 38 38 39 39 38 38 39 39 40 39 39 38 38 38 38 37 36 37 37 37 37 36 36 36 36 35 35 35 35 34 33 33 33 33 33 34 34
Wind_Direction
47 50 53 55 56 56 56 59 61 60 59 56 54 52 51 52 55 60 57 55 52 50 38 17 11 3 354 348 345 337 337 333 326 322 321 316 312 313 310 310 306 306 305
40 42 48 54 55 56 57 58 59 58 55 53 52 49 48 50 54 55 51 47 37 34 25 14 3 356 355 347 339 333 331 328 327 327 325 322 321 318 315 313 311 308 308
32 36 39 44 49 52 55 56 56 54 51 50 49 47 45 44 44 42 36 32 33 32 19 8 2 354 348 340 331 329 327 325 324 326 326 324 324 321 317 313 310 308 308
18 28 31 32 36 42 48 49 48 48 47 46 42 40 39 36 34 31 24 18 13 10 1 353 350 345 340 334 330 331 329 327 323 324 324 321 320 320 317 313 310 308 307
354 7 16 20 20 23 30 34 35 35 36 36 34 33 30 25 22 19 14 8 5 1 354 343 338 333 331 329 329 330 328 325 323 322 320 320 321 318 317 316 315 311 309
322 330 343 357 357 355 4 16 18 21 21 20 19 17 16 15 13 9 6 1 356 354 354 349 338 333 331 328 325 325 325 325 324 323 320 318 318 320 319 317 316 313 309
299 302 306 323 333 334 339 353 357 360 2 3 5 7 7 9 9 6 2 359 355 352 350 348 342 335 330 326 323 320 321 323 321 321 321 319 317 316 317 316 315 313 310
288 290 297 306 313 317 320 326 332 338 343 349 350 353 357 359 360 357 354 351 348 347 344 341 340 338 333 325 321 319 320 320 318 317 318 318 316 314 315 316 316 315 312
275 278 283 287 290 294 297 301 307 320 331 333 337 337 342 346 347 346 346 341 339 338 336 335 332 331 330 326 322 321 321 320 320 318 318 318 316 315 314 314 315 315 313
269 271 279 282 282 286 291 287 300 311 317 323 326 328 329 333 337 338 338 334 330 328 329 330 330 328 326 326 323 322 320 317 317 318 318 316 314 313 313 312 312 314 316
267 269 269 275 276 278 283 291 300 303 306 310 312 314 316 321 327 329 328 328 325 324 324 322 323 323 322 323 320 319 320 317 316 317 316 315 315 313 311 311 311 312 314
265 268 267 271 270 273 279 286 293 296 299 302 303 305 309 314 318 321 323 323 322 320 320 319 317 317 317 318 316 315 316 315 315 315 316 315 313 312 311 310 308 309 310
263 267 270 267 269 272 276 282 287 291 294 296 299 302 304 307 309 311 314 316 315 315 314 314 312 311 310 310 311 311 312 313 314 315 316 316 314 313 311 310 308 307 308
259 260 264 269 267 267 272 279 285 288 289 291 295 298 301 302 303 305 305 308 307 307 308 307 308 308 306 304 305 307 308 309 311 314 315 315 312 312 311 309 307 306 306
261 264 265 265 267 267 271 275 281 284 287 289 292 295 297 299 299 301 301 303 304 303 304 305 305 306 305 304 302 302 303 305 308 310 310 310 310 311 310 308 307 306 305
264 264 267 266 265 267 269 272 276 280 283 286 288 290 293 296 298 298 300 300 303 302 302 303 303 302 301 300 299 298 299 301 304 306 307 308 309 308 308 309 309 307 306
263 264 263 264 264 266 268 269 274 277 281 282 285 289 291 294 297 298 300 301 302 300 298 299 300 299 297 297 297 297 297 298 300 302 303 303 303 303 304 305 306 306 305
260 262 262 261 263 264 267 270 274 277 279 281 283 288 290 291 294 295 296 298 299 300 300 299 299 298 296 295 295 296 296 296 297 298 301 301 301 300 300 301 302 303 304
259 260 261 261 264 266 267 269 272 274 278 280 282 285 288 288 290 292 293 295 299 299 300 300 299 297 295 293 295 295 295 296 296 297 297 298 299 299 299 299 300 301 301
257 259 260 261 263 265 266 269 271 274 277 282 284 285 288 289 289 291 293 294 296 297 297 297 299 297 295 294 293 294 294 295 295 295 295 296 296 297 297 297 297 298 298
258 258 259 261 261 263 265 268 272 276 279 282 283 284 285 287 289 291 292 293 294 295 295 295 296 295 292 292 291 290 291 292 293 293 294 294 293 294 295 294 294 294 295
258 258 260 261 260 262 266 267 271 275 278 281 282 284 285 286 288 291 292 292 293 292 292 292 292 292 291 290 288 288 288 289 291 291 292 292 291 291 292 293 292 291 291
259 258 259 261 262 264 266 269 271 274 276 279 281 282 284 285 286 288 290 291 291 289 289 288 289 289 290 290 287 287 288 288 289 289 289 290 289 288 289 289 290 289 290
260 259 259 261 263 265 267 270 273 275 277 278 279 280 281 283 285 287 289 289 289 289 288 288 287 288 288 289 289 288 287 288 288 288 288 288 289 289 288 288 288 288 288
259 259 259 260 262 265 268 270 272 274 276 277 278 279 280 283 285 286 288 289 288 289 289 289 289 289 288 288 288 288 287 288 286 287 288 289 289 289 287 287 287 287 287
259 259 260 262 264 267 269 270 271 273 275 275 276 278 280 282 284 286 287 287 287 287 289 290 290 289 287 288 288 287 287 287 287 288 289 289 289 289 288 288 289 289 289
Height
5904 5903 5902 5901 5900 5900 5899 5899 5898 5898 5898 5897 5897 5896 5896 5895 5895 5894 5894 5893 5894 5894 5894 5894 5894 5894 5894 5893 5893 5893 5892 5892 5891 5891 5890 5889 5888 5888 5887 5886 5885 5883 5882
5906 5905 5904 5904 5903 5902 5901 5901 5901 5900 5900 5899 5898 5898 5897 5897 5896 5896 5896 5895 5895 5895 5895 5894 5894 5894 5894 5893 5893 5892 5892 5891 5890 5890 5889 5888 5888 5886 5885 5884 5883 5882 5880
5908 5907 5906 5905 5905 5904 5904 5903 5903 5902 5901 5901 5901 5900 5899 5899 5898 5898 5897 5896 5896 5896 5895 5895 5894 5894 5894 5893 5892 5892 5891 5890 5890 5889 5888 5887 5886 5885 5883 5882 5881 5879 5878
5909 5908 5907 5907 5906 5906 5906 5905 5905 5904 5903 5903 5902 5902 5901 5900 5900 5899 5898 5897 5897 5896 5895 5895 5894 5894 5893 5893 5892 5891 5890 5889 5888 5887 5886 5885 5884 5883 5881 5880 5878 5877 5876
5909 5909 5909 5908 5907 5907 5907 5906 5906 5905 5905 5904 5904 5903 5902 5902 5901 5900 5899 5898 5897 5896 5895 5895 5894 5893 5893 5892 5891 5890 5889 5888 5887 5886 5885 5883 5882 5880 5879 5878 5876 5875 5873
5909 5909 5909 5909 5908 5908 5907 5907 5907 5906 5906 5905 5905 5904 5903 5902 5901 5900 5899 5898 5897 5896 5895 5894 5893 5893 5892 5891 5890 5889 5888 5887 5886 5884 5883 5882 5880 5878 5877 5875 5873 5872 5870
5909 5909 5908 5908 5908 5908 5908 5907 5907 5907 5906 5906 5905 5904 5904 5903 5902 5901 5899 5898 5897 5896 5895 5894 5893 5892 5891 5890 5889 5888 5887 5886 5884 5883 5881 5880 5878 5876 5874 5872 5871 5869 5867
5908 5908 5908 5908 5908 5907 5907 5907 5907 5906 5906 5905 5905 5904 5904 5903 5902 5900 5899 5898 5897 5896 5894 5893 5892 5891 5890 5889 5888 5887 5885 5884 5882 5880 5879 5877 5875 5873 5871 5869 5868 5865 5864
5907 5906 5907 5907 5907 5907 5906 5906 5906 5906 5906 5905 5904 5904 5903 5902 5901 5900 5898 5897 5896 5895 5894 5892 5891 5890 5888 5887 5886 5884 5883 5881 5880 5878 5876 5874 5872 5870 5868 5866 5864 5863 5860
5904 5904 5905 5905 5905 5905 5904 5904 5905 5904 5904 5904 5903 5903 5902 5901 5900 5899 5898 5896 5895 5893 5892 5891 5889 5888 5886 5885 5884 5882 5881 5879 5877 5875 5873 5871 5869 5867 5865 5863 5861 5859 5857
5902 5901 5902 5903 5903 5903 5903 5904 5904 5903 5903 5903 5902 5901 5901 5900 5899 5898 5896 5895 5893 5892 5890 5889 5887 5886 5884 5883 5881 5880 5878 5876 5874 5872 5870 5868 5866 5863 5861 5859 5857 5855 5854
5899 5899 5899 5900 5899 5900 5901 5901 5902 5902 5901 5901 5901 5900 5899 5898 5897 5896 5894 5893 5891 5890 5888 5886 5884 5883 5881 5880 5878 5877 5875 5873 5871 5869 5867 5864 5862 5860 5857 5855 5853 5852 5850
5896 5896 5896 5896 5897 5898 5898 5899 5899 5899 5899 5898 5898 5897 5896 5896 5895 5893 5892 5890 5888 5887 5885 5883 5882 5880 5878 5877 5875 5873 5871 5869 5867 5865 5863 5861 5858 5856 5853 5851 5849 5847 5846
5893 5892 5891 5892 5894 5895 5895 5896 5896 5896 5896 5895 5895 5894 5894 5893 5891 5890 5888 5887 5885 5883 5881 5880 5878 5876 5875 5873 5871 5869 5867 5866 5864 5861 5859 5857 5854 5852 5849 5847 5845 5843 5841
5889 5889 5889 5888 5889 5890 5891 5892 5892 5892 5892 5891 5891 5890 5890 5889 5888 5886 5884 5882 5880 5878 5877 5875 5874 5872 5870 5868 5866 5865 5863 5861 5860 5857 5855 5853 5850 5848 5845 5842 5840 5838 5836
5884 5884 5885 5884 5885 5886 5887 5888 5888 5888 5888 5887 5887 5886 5885 5884 5883 5881 5879 5877 5875 5874 5872 5870 5868 5867 5865 5864 5861 5860 5858 5857 5855 5853 5850 5848 5846 5843 5841 5838 5836 5834 5832
5879 5879 5879 5880 5881 5882 5882 5882 5883 5883 5883 5882 5882 5880 5879 5878 5877 5876 5874 5872 5871 5869 5867 5865 5863 5862 5860 5858 5856 5854 5852 5851 5849 5847 5845 5843 5840 5838 5836 5834 5831 5829 5827
5873 5874 5874 5875 5875 5876 5877 5877 5877 5877 5877 5877 5876 5875 5873 5872 5871 5870 5868 5867 5865 5863 5861 5859 5857 5856 5854 5851 5850 5848 5847 5845 5843 5841 5839 5837 5835 5832 5830 5828 5826 5824 5822
5866 5867 5868 5869 5869 5870 5870 5871 5871 5871 5870 5870 5869 5868 5866 5865 5864 5863 5862 5860 5859 5857 5855 5853 5851 5849 5847 5845 5843 5841 5840 5838 5836 5835 5833 5830 5828 5826 5824 5822 5820 5818 5816
5859 5860 5861 5862 5863 5863 5864 5864 5864 5864 5863 5863 5862 5861 5860 5858 5857 5856 5855 5853 5851 5850 5848 5846 5844 5842 5840 5838 5836 5834 5833 5831 5829 5827 5825 5823 5821 5819 5817 5815 5813 5811 5809
5851 5852 5853 5855 5855 5855 5855 5856 5857 5856 5856 5855 5855 5854 5852 5851 5850 5848 5847 5845 5844 5842 5840 5838 5837 5834 5832 5830 5828 5826 5824 5823 5821 5820 5818 5816 5814 5811 5810 5808 5806 5804 5802
5842 5844 5845 5846 5847 5847 5847 5848 5848 5849 5848 5848 5847 5846 5844 5843 5841 5840 5839 5837 5835 5833 5832 5830 5828 5826 5824 5822 5819 5817 5816 5814 5812 5811 5809 5807 5805 5803 5801 5799 5798 5796 5794
5833 5835 5836 5837 5838 5839 5840 5840 5840 5840 5840 5839 5839 5838 5836 5835 5833 5832 5830 5828 5826 5824 5822 5820 5819 5817 5815 5812 5810 5808 5806 5804 5802 5801 5799 5797 5795 5794 5792 5790 5789 5787 5785
5825 5826 5828 5829 5830 5830 5831 5831 5831 5831 5831 5830 5829 5829 5827 5826 5824 5823 5821 5819 5817 5815 5813 5811 5809 5808 5806 5804 5801 5799 5797 5795 5793 5791 5789 5787 5785 5784 5782 5781 5779 5778 5776
5815 5817 5818 5819 5820 5821 5821 5821 5821 5821 5821 5820 5819 5818 5818 5816 5815 5813 5811 5810 5808 5805 5803 5801 5800 5798 5796 5794 5792 5789 5787 5785 5782 5780 5779 5777 5776 5774 5772 5771 5769 5768 5766
5805 5805 5807 5808 5810 5811 5811 5811 5811 5811 5811 5810 5809 5808 5807 5806 5804 5803 5801 5799 5798 5796 5794 5792 5789 5787 5785 5783 5781 5779 5777 5775 5773 5771 5769 5767 5766 5764 5763 5761 5760 5758 5756